This is the latest recevied weather packets stored in our database for station/object N0HEQ. If no packets are shown the sender has not sent any weather packets the latest 10 day(s).
| Time | Temp. | Humidity | Pressure | Rain* | Wind** | Luminosity | Snow |
|---|---|---|---|---|---|---|---|
| 1777530906 | 5.56° C | 87% | 1023.6 hPa | 0 mm | - | 0 W/m² | - |
| 1777530603 | 5.56° C | 87% | 1023.5 hPa | 0 mm | - | 0 W/m² | - |
| 1777530301 | 5.56° C | 86% | 1023.5 hPa | 0 mm | - | 0 W/m² | - |
| 1777529996 | 5.56° C | 85% | 1023.6 hPa | 0 mm | - | 0 W/m² | - |
| 1777529693 | 6.11° C | 85% | 1023.8 hPa | 0 mm | - | 0 W/m² | - |
| 1777529390 | 6.11° C | 85% | 1023.5 hPa | 0 mm | - | 0 W/m² | - |
| 1777529087 | 6.11° C | 84% | 1023.6 hPa | 0 mm | - | 0 W/m² | - |
| 1777528782 | 6.11° C | 82% | 1023.5 hPa | 0 mm | - | 0 W/m² | - |
| 1777528479 | 6.11° C | 83% | 1023.8 hPa | 0 mm | - | 0 W/m² | - |
| 1777528178 | 6.11° C | 84% | 1023.6 hPa | 0 mm | - | 0 W/m² | - |
| 1777527874 | 6.11° C | 83% | 1023.5 hPa | 0 mm | - | 0 W/m² | - |
| 1777527571 | 6.67° C | 83% | 1023.6 hPa | 0 mm | - | 0 W/m² | - |
| 1777527271 | 6.67° C | 82% | 1023.6 hPa | 0 mm | - | 0 W/m² | - |
| 1777526967 | 6.67° C | 79% | 1023.6 hPa | 0 mm | - | 0 W/m² | - |
| 1777526662 | 6.67° C | 82% | 1023.5 hPa | 0 mm | - | 0 W/m² | - |
| 1777526358 | 6.67° C | 83% | 1023.6 hPa | 0 mm | - | 0 W/m² | - |
| 1777526054 | 6.67° C | 82% | 1023.8 hPa | 0 mm | - | 0 W/m² | - |
| 1777525750 | 6.67° C | 81% | 1023.6 hPa | 0 mm | - | 0 W/m² | - |
| 1777525448 | 6.67° C | 80% | 1023.6 hPa | 0 mm | - | 0 W/m² | - |
| 1777525143 | 6.67° C | 79% | 1023.8 hPa | 0 mm | - | 0 W/m² | - |
| 1777524840 | 6.67° C | 79% | 1023.6 hPa | 0 mm | - | 0 W/m² | - |
| 1777524538 | 6.67° C | 78% | 1023.6 hPa | 0 mm | - | 0 W/m² | - |
| 1777524235 | 6.67° C | 78% | 1023.8 hPa | 0 mm | - | 0 W/m² | - |
| 1777523930 | 6.67° C | 79% | 1023.9 hPa | 0 mm | - | 0 W/m² | - |
| 1777523628 | 6.67° C | 80% | 1023.9 hPa | 0 mm | - | 0 W/m² | - |
* Rain latest hour (hover to see other rain measurements)
** Current wind speed in m/s (hover to see current wind gust speed)